Time,TemperatureF,DewpointF,PressureIn,WindDirection,WindDirectionDegrees,WindSpeedMPH,WindSpeedGustMPH,Humidity,HourlyPrecipIn,Conditions,Clouds,dailyrainin,SoftwareType,DateUTC
2013-09-01 00:02:00,75.1,63.0,29.82,North,350,0.0,1.0,66,0.00,,,0.00,WeatherCatV1.21B27,2013-09-01 07:02:00,
2013-09-01 00:07:00,75.0,62.8,29.82,North,349,0.0,0.0,66,0.00,,,0.00,WeatherCatV1.21B27,2013-09-01 07:07:00,
2013-09-01 00:12:00,74.9,62.8,29.82,North,350,0.0,0.0,66,0.00,,,0.00,WeatherCatV1.21B27,2013-09-01 07:12:00,
2013-09-01 00:17:00,74.8,62.7,29.82,North,350,0.0,0.0,66,0.00,,,0.00,WeatherCatV1.21B27,2013-09-01 07:17:00,
2013-09-01 00:22:00,74.6,62.5,29.82,North,349,0.0,1.0,66,0.00,,,0.00,WeatherCatV1.21B27,2013-09-01 07:22:00,
2013-09-01 00:27:00,74.5,62.4,29.82,North,349,0.0,0.0,66,0.00,,,0.00,WeatherCatV1.21B27,2013-09-01 07:27:00,
2013-09-01 00:32:00,74.3,62.2,29.82,North,350,0.0,0.0,66,0.00,,,0.00,WeatherCatV1.21B27,2013-09-01 07:32:00,
2013-09-01 00:37:00,74.2,61.7,29.82,North,350,0.0,0.0,65,0.00,,,0.00,WeatherCatV1.21B27,2013-09-01 07:37:00,
2013-09-01 00:42:00,74.1,61.6,29.82,North,350,0.0,0.0,65,0.00,,,0.00,WeatherCatV1.21B27,2013-09-01 07:42:00,
2013-09-01 00:47:00,74.0,61.5,29.82,North,350,0.0,0.0,65,0.00,,,0.00,WeatherCatV1.21B27,2013-09-01 07:47:00,
2013-09-01 00:52:00,73.9,60.9,29.82,North,349,0.0,1.0,64,0.00,,,0.00,WeatherCatV1.21B27,2013-09-01 07:52:00,
2013-09-01 00:57:00,73.7,60.8,29.83,North,349,0.0,0.0,64,0.00,,,0.00,WeatherCatV1.21B27,2013-09-01 07:57:00,
2013-09-01 01:02:00,73.7,61.2,29.83,North,349,0.0,1.0,65,0.00,,,0.00,WeatherCatV1.21B27,2013-09-01 08:02:00,
2013-09-01 01:07:00,73.7,60.8,29.83,NNW,345,1.0,1.0,64,0.00,,,0.00,WeatherCatV1.21B27,2013-09-01 08:07:00,
2013-09-01 01:12:00,73.7,60.8,29.83,NNW,338,0.0,3.0,64,0.00,,,0.00,WeatherCatV1.21B27,2013-09-01 08:12:00,
2013-09-01 01:17:00,73.7,61.2,29.82,NNW,337,0.0,1.0,65,0.00,,,0.00,WeatherCatV1.21B27,2013-09-01 08:17:00,
2013-09-01 01:22:00,73.5,61.0,29.82,NNW,333,0.0,3.0,65,0.00,,,0.00,WeatherCatV1.21B27,2013-09-01 08:22:00,
2013-09-01 01:27:00,73.5,61.0,29.82,NNW,332,0.0,0.0,65,0.00,,,0.00,WeatherCatV1.21B27,2013-09-01 08:27:00,
2013-09-01 01:32:00,73.3,60.8,29.82,NNW,331,0.0,0.0,65,0.00,,,0.00,WeatherCatV1.21B27,2013-09-01 08:32:00,
2013-09-01 01:37:00,73.2,61.1,29.82,NNW,332,0.0,0.0,66,0.00,,,0.00,WeatherCatV1.21B27,2013-09-01 08:37:00,
2013-09-01 01:42:00,73.1,61.0,29.82,NNW,332,0.0,0.0,66,0.00,,,0.00,WeatherCatV1.21B27,2013-09-01 08:42:00,
2013-09-01 01:47:00,72.9,60.9,29.82,NNW,332,0.0,0.0,66,0.00,,,0.00,WeatherCatV1.21B27,2013-09-01 08:47:00,
2013-09-01 01:52:00,72.8,60.8,29.82,NNW,331,0.0,0.0,66,0.00,,,0.00,WeatherCatV1.21B27,2013-09-01 08:52:00,
2013-09-01 01:57:00,72.6,60.6,29.82,NNW,332,0.0,0.0,66,0.00,,,0.00,WeatherCatV1.21B27,2013-09-01 08:57:00,
2013-09-01 02:02:00,72.3,60.3,29.82,NNW,332,0.0,0.0,66,0.00,,,0.00,WeatherCatV1.21B27,2013-09-01 09:02:00,
2013-09-01 02:07:00,72.0,60.4,29.82,NNW,331,0.0,0.0,67,0.00,,,0.00,WeatherCatV1.21B27,2013-09-01 09:07:00,
2013-09-01 02:12:00,71.8,60.2,29.82,NNW,332,0.0,0.0,67,0.00,,,0.00,WeatherCatV1.21B27,2013-09-01 09:12:00,
2013-09-01 02:17:00,71.7,60.1,29.82,NNW,332,0.0,0.0,67,0.00,,,0.00,WeatherCatV1.21B27,2013-09-01 09:17:00,
2013-09-01 02:22:00,71.5,60.4,29.81,NNW,332,0.0,0.0,68,0.00,,,0.00,WeatherCatV1.21B27,2013-09-01 09:22:00,
2013-09-01 02:27:00,71.4,59.9,29.81,NNW,332,0.0,0.0,67,0.00,,,0.00,WeatherCatV1.21B27,2013-09-01 09:27:00,
2013-09-01 02:32:00,71.1,60.0,29.82,NNW,332,0.0,0.0,68,0.00,,,0.00,WeatherCatV1.21B27,2013-09-01 09:32:00,
2013-09-01 02:37:00,70.8,60.5,29.81,NNW,331,0.0,0.0,70,0.00,,,0.00,WeatherCatV1.21B27,2013-09-01 09:37:00,
2013-09-01 02:42:00,70.5,60.6,29.82,NNW,332,0.0,0.0,71,0.00,,,0.00,WeatherCatV1.21B27,2013-09-01 09:42:00,
2013-09-01 02:47:00,70.3,60.4,29.82,NNW,331,0.0,0.0,71,0.00,,,0.00,WeatherCatV1.21B27,2013-09-01 09:47:00,
2013-09-01 02:52:00,70.0,60.2,29.82,NNW,332,0.0,0.0,71,0.00,,,0.00,WeatherCatV1.21B27,2013-09-01 09:52:00,
2013-09-01 02:57:00,69.8,60.7,29.82,NNW,332,0.0,0.0,73,0.00,,,0.00,WeatherCatV1.21B27,2013-09-01 09:57:00,
2013-09-01 03:02:00,69.5,60.1,29.82,NNW,332,0.0,0.0,72,0.00,,,0.00,WeatherCatV1.21B27,2013-09-01 10:02:00,
2013-09-01 03:07:00,69.3,59.9,29.82,NNW,332,0.0,0.0,72,0.00,,,0.00,WeatherCatV1.21B27,2013-09-01 10:07:00,
2013-09-01 03:12:00,69.1,60.1,29.81,NNW,331,0.0,0.0,73,0.00,,,0.00,WeatherCatV1.21B27,2013-09-01 10:12:00,
2013-09-01 03:17:00,68.9,59.9,29.82,NNW,332,0.0,0.0,73,0.00,,,0.00,WeatherCatV1.21B27,2013-09-01 10:17:00,
2013-09-01 03:22:00,68.6,60.3,29.82,NNW,332,0.0,0.0,75,0.00,,,0.00,WeatherCatV1.21B27,2013-09-01 10:22:00,
2013-09-01 03:27:00,68.5,60.6,29.82,NNW,331,0.0,0.0,76,0.00,,,0.00,WeatherCatV1.21B27,2013-09-01 10:27:00,
2013-09-01 03:32:00,68.2,60.7,29.81,NNW,332,0.0,0.0,77,0.00,,,0.00,WeatherCatV1.21B27,2013-09-01 10:32:00,
2013-09-01 03:37:00,68.0,60.5,29.82,NNW,332,0.0,0.0,77,0.00,,,0.00,WeatherCatV1.21B27,2013-09-01 10:37:00,
2013-09-01 03:42:00,67.7,60.6,29.82,NNW,332,0.0,0.0,78,0.00,,,0.00,WeatherCatV1.21B27,2013-09-01 10:42:00,
2013-09-01 03:47:00,67.5,60.4,29.82,NNW,331,0.0,0.0,78,0.00,,,0.00,WeatherCatV1.21B27,2013-09-01 10:47:00,
2013-09-01 03:52:00,67.4,60.3,29.82,NNW,332,0.0,0.0,78,0.00,,,0.00,WeatherCatV1.21B27,2013-09-01 10:52:00,
2013-09-01 03:57:00,67.1,60.0,29.82,NNW,332,0.0,0.0,78,0.00,,,0.00,WeatherCatV1.21B27,2013-09-01 10:57:00,
2013-09-01 04:02:00,66.9,60.2,29.81,NNW,332,0.0,0.0,79,0.00,,,0.00,WeatherCatV1.21B27,2013-09-01 11:02:00,
2013-09-01 04:07:00,66.7,60.0,29.81,NNW,332,0.0,0.0,79,0.00,,,0.00,WeatherCatV1.21B27,2013-09-01 11:07:00,
2013-09-01 04:12:00,66.6,60.6,29.81,NNW,332,0.0,0.0,81,0.00,,,0.00,WeatherCatV1.21B27,2013-09-01 11:12:00,
2013-09-01 04:17:00,66.4,60.7,29.81,NNW,332,0.0,0.0,82,0.00,,,0.00,WeatherCatV1.21B27,2013-09-01 11:17:00,
2013-09-01 04:22:00,66.3,60.3,29.81,NNW,331,0.0,0.0,81,0.00,,,0.00,WeatherCatV1.21B27,2013-09-01 11:22:00,
2013-09-01 04:27:00,66.1,60.1,29.81,NNW,331,0.0,0.0,81,0.00,,,0.00,WeatherCatV1.21B27,2013-09-01 11:27:00,
2013-09-01 04:32:00,66.0,60.0,29.81,NNW,332,0.0,0.0,81,0.00,,,0.00,WeatherCatV1.21B27,2013-09-01 11:32:00,
2013-09-01 04:37:00,65.9,59.9,29.81,NNW,332,0.0,0.0,81,0.00,,,0.00,WeatherCatV1.21B27,2013-09-01 11:37:00,
2013-09-01 04:42:00,65.8,59.8,29.81,NNW,331,0.0,0.0,81,0.00,,,0.00,WeatherCatV1.21B27,2013-09-01 11:42:00,
2013-09-01 04:47:00,65.7,59.7,29.81,NNW,332,0.0,0.0,81,0.00,,,0.00,WeatherCatV1.21B27,2013-09-01 11:47:00,
2013-09-01 04:52:00,65.6,59.6,29.82,NNW,332,0.0,0.0,81,0.00,,,0.00,WeatherCatV1.21B27,2013-09-01 11:52:00,
2013-09-01 04:57:00,65.6,59.6,29.82,NNW,331,0.0,0.0,81,0.00,,,0.00,WeatherCatV1.21B27,2013-09-01 11:57:00,
2013-09-01 05:02:00,65.6,59.3,29.82,NNW,331,0.0,0.0,80,0.00,,,0.00,WeatherCatV1.21B27,2013-09-01 12:02:00,
2013-09-01 05:07:00,65.7,59.3,29.82,NNW,332,0.0,1.0,80,0.00,,,0.00,WeatherCatV1.21B27,2013-09-01 12:07:00,
2013-09-01 05:12:00,65.9,59.2,29.82,NNW,332,0.0,1.0,79,0.00,,,0.00,WeatherCatV1.21B27,2013-09-01 12:12:00,
2013-09-01 05:17:00,66.1,59.0,29.82,NNW,332,0.0,1.0,78,0.00,,,0.00,WeatherCatV1.21B27,2013-09-01 12:17:00,
2013-09-01 05:22:00,66.3,58.9,29.82,NNW,332,0.0,0.0,77,0.00,,,0.00,WeatherCatV1.21B27,2013-09-01 12:22:00,
2013-09-01 05:27:00,66.5,59.1,29.82,NNW,332,0.0,0.0,77,0.00,,,0.00,WeatherCatV1.21B27,2013-09-01 12:27:00,
2013-09-01 05:32:00,66.5,59.1,29.82,NNW,332,0.0,0.0,77,0.00,,,0.00,WeatherCatV1.21B27,2013-09-01 12:32:00,
2013-09-01 05:37:00,66.5,59.1,29.82,NNW,331,0.0,0.0,77,0.00,,,0.00,WeatherCatV1.21B27,2013-09-01 12:37:00,
2013-09-01 05:42:00,66.5,58.7,29.82,NNW,332,0.0,0.0,76,0.00,,,0.00,WeatherCatV1.21B27,2013-09-01 12:42:00,
2013-09-01 05:47:00,66.4,58.6,29.83,NNW,332,0.0,0.0,76,0.00,,,0.00,WeatherCatV1.21B27,2013-09-01 12:47:00,
2013-09-01 05:52:00,66.4,58.6,29.83,NNW,332,0.0,0.0,76,0.00,,,0.00,WeatherCatV1.21B27,2013-09-01 12:52:00,
2013-09-01 05:57:00,66.3,58.5,29.83,NNW,331,0.0,0.0,76,0.00,,,0.00,WeatherCatV1.21B27,2013-09-01 12:57:00,
2013-09-01 06:02:00,66.3,58.5,29.83,NNW,331,0.0,0.0,76,0.00,,,0.00,WeatherCatV1.21B27,2013-09-01 13:02:00,
2013-09-01 06:07:00,66.3,58.5,29.83,NNW,332,0.0,0.0,76,0.00,,,0.00,WeatherCatV1.21B27,2013-09-01 13:07:00,
2013-09-01 06:12:00,66.2,58.4,29.83,NNW,331,0.0,0.0,76,0.00,,,0.00,WeatherCatV1.21B27,2013-09-01 13:12:00,
2013-09-01 06:17:00,66.2,58.4,29.83,NNW,332,0.0,0.0,76,0.00,,,0.00,WeatherCatV1.21B27,2013-09-01 13:17:00,
2013-09-01 06:22:00,66.1,58.7,29.83,NNW,332,0.0,0.0,77,0.00,,,0.00,WeatherCatV1.21B27,2013-09-01 13:22:00,
2013-09-01 06:27:00,66.0,58.6,29.83,NNW,331,0.0,0.0,77,0.00,,,0.00,WeatherCatV1.21B27,2013-09-01 13:27:00,
2013-09-01 06:32:00,65.9,58.5,29.83,NNW,332,0.0,0.0,77,0.00,,,0.00,WeatherCatV1.21B27,2013-09-01 13:32:00,
2013-09-01 06:37:00,65.8,58.4,29.83,NNW,331,0.0,0.0,77,0.00,,,0.00,WeatherCatV1.21B27,2013-09-01 13:37:00,
2013-09-01 06:42:00,65.8,58.4,29.83,NNW,332,0.0,0.0,77,0.00,,,0.00,WeatherCatV1.21B27,2013-09-01 13:42:00,
2013-09-01 06:47:00,65.7,58.3,29.83,NNW,331,0.0,0.0,77,0.00,,,0.00,WeatherCatV1.21B27,2013-09-01 13:47:00,
2013-09-01 06:52:00,65.6,58.2,29.84,NNW,332,0.0,0.0,77,0.00,,,0.00,WeatherCatV1.21B27,2013-09-01 13:52:00,
2013-09-01 06:57:00,65.6,58.2,29.84,NNW,332,0.0,0.0,77,0.00,,,0.00,WeatherCatV1.21B27,2013-09-01 13:57:00,
2013-09-01 07:02:00,65.6,58.2,29.84,NNW,332,0.0,0.0,77,0.00,,,0.00,WeatherCatV1.21B27,2013-09-01 14:02:00,
2013-09-01 07:07:00,65.6,58.2,29.84,NNW,332,0.0,0.0,77,0.00,,,0.00,WeatherCatV1.21B27,2013-09-01 14:07:00,
2013-09-01 07:12:00,65.7,58.3,29.84,NNW,332,0.0,1.0,77,0.00,,,0.00,WeatherCatV1.21B27,2013-09-01 14:12:00,
2013-09-01 07:17:00,65.8,58.4,29.84,NNW,332,0.0,1.0,77,0.00,,,0.00,WeatherCatV1.21B27,2013-09-01 14:17:00,
2013-09-01 07:22:00,66.1,58.7,29.84,NNW,331,0.0,0.0,77,0.00,,,0.00,WeatherCatV1.21B27,2013-09-01 14:22:00,
2013-09-01 07:27:00,66.5,59.1,29.84,NNW,332,0.0,0.0,77,0.00,,,0.00,WeatherCatV1.21B27,2013-09-01 14:27:00,
2013-09-01 07:32:00,66.9,58.7,29.84,NNW,331,0.0,1.0,75,0.00,,,0.00,WeatherCatV1.21B27,2013-09-01 14:32:00,
2013-09-01 07:37:00,67.4,59.2,29.85,NNW,329,0.0,0.0,75,0.00,,,0.00,WeatherCatV1.21B27,2013-09-01 14:37:00,
2013-09-01 07:42:00,67.9,59.3,29.85,NNW,329,0.0,0.0,74,0.00,,,0.00,WeatherCatV1.21B27,2013-09-01 14:42:00,
2013-09-01 07:47:00,68.4,59.0,29.85,NNW,329,0.0,0.0,72,0.00,,,0.00,WeatherCatV1.21B27,2013-09-01 14:47:00,
2013-09-01 07:52:00,68.8,59.4,29.85,NNW,329,0.0,0.0,72,0.00,,,0.00,WeatherCatV1.21B27,2013-09-01 14:52:00,
2013-09-01 07:57:00,69.2,59.4,29.85,NW,318,0.0,0.0,71,0.00,,,0.00,WeatherCatV1.21B27,2013-09-01 14:57:00,
2013-09-01 08:02:00,69.5,59.3,29.85,NW,318,0.0,1.0,70,0.00,,,0.00,WeatherCatV1.21B27,2013-09-01 15:02:00,
2013-09-01 08:07:00,69.8,58.8,29.85,NW,318,0.0,0.0,68,0.00,,,0.00,WeatherCatV1.21B27,2013-09-01 15:07:00,
2013-09-01 08:12:00,70.1,59.4,29.85,NW,318,0.0,0.0,69,0.00,,,0.00,WeatherCatV1.21B27,2013-09-01 15:12:00,
2013-09-01 08:17:00,70.4,59.3,29.85,NW,312,0.0,2.0,68,0.00,,,0.00,WeatherCatV1.21B27,2013-09-01 15:17:00,
2013-09-01 08:22:00,70.8,59.3,29.85,WNW,292,0.0,2.0,67,0.00,,,0.00,WeatherCatV1.21B27,2013-09-01 15:22:00,
2013-09-01 08:27:00,71.3,59.3,29.85,WNW,292,0.0,2.0,66,0.00,,,0.00,WeatherCatV1.21B27,2013-09-01 15:27:00,
2013-09-01 08:32:00,71.8,59.8,29.85,WNW,294,0.0,2.0,66,0.00,,,0.00,WeatherCatV1.21B27,2013-09-01 15:32:00,
2013-09-01 08:37:00,72.4,60.0,29.85,WNW,294,0.0,1.0,65,0.00,,,0.00,WeatherCatV1.21B27,2013-09-01 15:37:00,
2013-09-01 08:42:00,73.0,59.2,29.85,West,280,0.0,3.0,62,0.00,,,0.00,WeatherCatV1.21B27,2013-09-01 15:42:00,
2013-09-01 08:47:00,73.6,60.2,29.85,West,281,0.0,1.0,63,0.00,,,0.00,WeatherCatV1.21B27,2013-09-01 15:47:00,
2013-09-01 08:52:00,74.3,60.4,29.85,West,280,0.0,1.0,62,0.00,,,0.00,WeatherCatV1.21B27,2013-09-01 15:52:00,
2013-09-01 08:57:00,74.8,60.0,29.85,WNW,290,1.0,3.0,60,0.00,,,0.00,WeatherCatV1.21B27,2013-09-01 15:57:00,
2013-09-01 09:02:00,75.2,60.3,29.85,WNW,290,0.0,1.0,60,0.00,,,0.00,WeatherCatV1.21B27,2013-09-01 16:02:00,
2013-09-01 09:07:00,75.5,60.6,29.85,WNW,288,0.0,1.0,60,0.00,,,0.00,WeatherCatV1.21B27,2013-09-01 16:07:00,
2013-09-01 09:12:00,76.0,62.0,29.85,WNW,286,0.0,0.0,62,0.00,,,0.00,WeatherCatV1.21B27,2013-09-01 16:12:00,
2013-09-01 09:17:00,76.6,60.2,29.85,WNW,283,1.0,2.0,57,0.00,,,0.00,WeatherCatV1.21B27,2013-09-01 16:17:00,
2013-09-01 09:22:00,76.9,60.0,29.85,West,267,0.0,0.0,56,0.00,,,0.00,WeatherCatV1.21B27,2013-09-01 16:22:00,
2013-09-01 09:27:00,77.5,60.5,29.85,West,267,0.0,1.0,56,0.00,,,0.00,WeatherCatV1.21B27,2013-09-01 16:27:00,
2013-09-01 09:32:00,77.9,60.9,29.85,West,273,0.0,1.0,56,0.00,,,0.00,WeatherCatV1.21B27,2013-09-01 16:32:00,
2013-09-01 09:37:00,78.5,61.5,29.85,West,272,1.0,3.0,56,0.00,,,0.00,WeatherCatV1.21B27,2013-09-01 16:37:00,
2013-09-01 09:42:00,79.0,60.9,29.85,West,272,0.0,0.0,54,0.00,,,0.00,WeatherCatV1.21B27,2013-09-01 16:42:00,
2013-09-01 09:47:00,79.4,62.3,29.85,West,273,0.0,0.0,56,0.00,,,0.00,WeatherCatV1.21B27,2013-09-01 16:47:00,
2013-09-01 09:52:00,79.8,61.1,29.85,West,281,0.0,0.0,53,0.00,,,0.00,WeatherCatV1.21B27,2013-09-01 16:52:00,
2013-09-01 09:57:00,80.3,62.6,29.85,West,281,0.0,1.0,55,0.00,,,0.00,WeatherCatV1.21B27,2013-09-01 16:57:00,
2013-09-01 10:02:00,80.9,60.5,29.85,West,272,0.0,3.0,50,0.00,,,0.00,WeatherCatV1.21B27,2013-09-01 17:02:00,
2013-09-01 10:07:00,81.0,62.2,29.85,West,272,0.0,0.0,53,0.00,,,0.00,WeatherCatV1.21B27,2013-09-01 17:07:00,
2013-09-01 10:12:00,81.4,61.5,29.85,West,280,0.0,1.0,51,0.00,,,0.00,WeatherCatV1.21B27,2013-09-01 17:12:00,
2013-09-01 10:17:00,81.7,61.8,29.85,West,280,0.0,1.0,51,0.00,,,0.00,WeatherCatV1.21B27,2013-09-01 17:17:00,
2013-09-01 10:22:00,82.4,62.4,29.85,West,281,0.0,1.0,51,0.00,,,0.00,WeatherCatV1.21B27,2013-09-01 17:22:00,
2013-09-01 10:27:00,82.7,61.6,29.85,West,275,0.0,1.0,49,0.00,,,0.00,WeatherCatV1.21B27,2013-09-01 17:27:00,
2013-09-01 10:32:00,83.0,62.4,29.85,West,273,1.0,1.0,50,0.00,,,0.00,WeatherCatV1.21B27,2013-09-01 17:32:00,
2013-09-01 10:37:00,83.2,61.4,29.85,NW,317,0.0,6.0,48,0.00,,,0.00,WeatherCatV1.21B27,2013-09-01 17:37:00,
2013-09-01 10:42:00,83.3,61.5,29.85,NW,313,0.0,3.0,48,0.00,,,0.00,WeatherCatV1.21B27,2013-09-01 17:42:00,
2013-09-01 10:47:00,83.5,61.7,29.85,NW,313,0.0,2.0,48,0.00,,,0.00,WeatherCatV1.21B27,2013-09-01 17:47:00,
2013-09-01 10:52:00,83.9,62.7,29.85,NW,313,0.0,1.0,49,0.00,,,0.00,WeatherCatV1.21B27,2013-09-01 17:52:00,
2013-09-01 10:57:00,84.3,61.8,29.85,NW,313,0.0,1.0,47,0.00,,,0.00,WeatherCatV1.21B27,2013-09-01 17:57:00,
2013-09-01 11:02:00,84.8,61.7,29.84,NW,313,2.0,4.0,46,0.00,,,0.00,WeatherCatV1.21B27,2013-09-01 18:02:00,
2013-09-01 11:07:00,84.9,60.5,29.84,NW,319,1.0,5.0,44,0.00,,,0.00,WeatherCatV1.21B27,2013-09-01 18:07:00,
2013-09-01 11:12:00,85.2,62.0,29.84,NW,311,0.0,5.0,46,0.00,,,0.00,WeatherCatV1.21B27,2013-09-01 18:12:00,
2013-09-01 11:17:00,85.5,61.7,29.84,NW,311,0.0,0.0,45,0.00,,,0.00,WeatherCatV1.21B27,2013-09-01 18:17:00,
2013-09-01 11:22:00,85.8,62.0,29.84,NW,313,0.0,1.0,45,0.00,,,0.00,WeatherCatV1.21B27,2013-09-01 18:22:00,
2013-09-01 11:27:00,86.5,62.6,29.84,WNW,296,0.0,2.0,45,0.00,,,0.00,WeatherCatV1.21B27,2013-09-01 18:27:00,
2013-09-01 11:32:00,87.1,63.1,29.84,WNW,296,1.0,1.0,45,0.00,,,0.00,WeatherCatV1.21B27,2013-09-01 18:32:00,
2013-09-01 11:37:00,87.5,63.5,29.84,West,271,0.0,1.0,45,0.00,,,0.00,WeatherCatV1.21B27,2013-09-01 18:37:00,
2013-09-01 11:42:00,87.9,64.5,29.83,West,269,0.0,0.0,46,0.00,,,0.00,WeatherCatV1.21B27,2013-09-01 18:42:00,
2013-09-01 11:47:00,88.4,61.7,29.83,West,267,0.0,3.0,41,0.00,,,0.00,WeatherCatV1.21B27,2013-09-01 18:47:00,
2013-09-01 11:52:00,88.5,60.3,29.83,NW,323,0.0,6.0,39,0.00,,,0.00,WeatherCatV1.21B27,2013-09-01 18:52:00,
2013-09-01 11:57:00,88.5,61.0,29.83,NW,326,1.0,5.0,40,0.00,,,0.00,WeatherCatV1.21B27,2013-09-01 18:57:00,
2013-09-01 12:02:00,88.6,61.8,29.83,NNW,327,1.0,1.0,41,0.00,,,0.00,WeatherCatV1.21B27,2013-09-01 19:02:00,
2013-09-01 12:07:00,88.9,60.0,29.83,NNW,327,0.0,1.0,38,0.00,,,0.00,WeatherCatV1.21B27,2013-09-01 19:07:00,
2013-09-01 12:12:00,89.3,63.2,29.83,NW,322,0.0,0.0,42,0.00,,,0.00,WeatherCatV1.21B27,2013-09-01 19:12:00,
2013-09-01 12:17:00,89.3,61.0,29.83,NNW,329,0.0,5.0,39,0.00,,,0.00,WeatherCatV1.21B27,2013-09-01 19:17:00,
2013-09-01 12:22:00,89.4,59.7,29.83,NW,326,2.0,5.0,37,0.00,,,0.00,WeatherCatV1.21B27,2013-09-01 19:22:00,
2013-09-01 12:27:00,89.6,60.6,29.83,NW,325,0.0,1.0,38,0.00,,,0.00,WeatherCatV1.21B27,2013-09-01 19:27:00,
2013-09-01 12:32:00,90.3,62.7,29.82,NW,322,0.0,2.0,40,0.00,,,0.00,WeatherCatV1.21B27,2013-09-01 19:32:00,
2013-09-01 12:37:00,90.8,63.8,29.82,NW,322,0.0,2.0,41,0.00,,,0.00,WeatherCatV1.21B27,2013-09-01 19:37:00,
2013-09-01 12:42:00,91.3,64.9,29.82,NW,322,0.0,0.0,42,0.00,,,0.00,WeatherCatV1.21B27,2013-09-01 19:42:00,
2013-09-01 12:47:00,91.5,61.5,29.82,NW,322,0.0,2.0,37,0.00,,,0.00,WeatherCatV1.21B27,2013-09-01 19:47:00,
2013-09-01 12:52:00,91.0,61.8,29.82,NNW,331,1.0,3.0,38,0.00,,,0.00,WeatherCatV1.21B27,2013-09-01 19:52:00,
2013-09-01 12:57:00,90.8,62.4,29.82,NNW,333,0.0,4.0,39,0.00,,,0.00,WeatherCatV1.21B27,2013-09-01 19:57:00,
2013-09-01 13:02:00,90.5,62.1,29.81,NNW,340,0.0,1.0,39,0.00,,,0.00,WeatherCatV1.21B27,2013-09-01 20:02:00,
2013-09-01 13:07:00,90.9,63.2,29.81,WNW,290,0.0,4.0,40,0.00,,,0.00,WeatherCatV1.21B27,2013-09-01 20:07:00,
2013-09-01 13:12:00,91.7,65.3,29.81,WNW,294,2.0,2.0,42,0.00,,,0.00,WeatherCatV1.21B27,2013-09-01 20:12:00,
2013-09-01 13:17:00,91.9,66.2,29.81,NW,313,0.0,0.0,43,0.00,,,0.00,WeatherCatV1.21B27,2013-09-01 20:17:00,
2013-09-01 13:22:00,92.3,65.1,29.81,NW,315,3.0,3.0,41,0.00,,,0.00,WeatherCatV1.21B27,2013-09-01 20:22:00,
2013-09-01 13:27:00,92.3,63.0,29.81,WNW,296,0.0,3.0,38,0.00,,,0.00,WeatherCatV1.21B27,2013-09-01 20:27:00,
2013-09-01 13:32:00,92.5,65.3,29.81,WNW,296,0.0,0.0,41,0.00,,,0.00,WeatherCatV1.21B27,2013-09-01 20:32:00,
2013-09-01 13:37:00,92.7,64.8,29.80,WNW,300,0.0,3.0,40,0.00,,,0.00,WeatherCatV1.21B27,2013-09-01 20:37:00,
2013-09-01 13:42:00,92.9,66.4,29.80,NW,306,3.0,3.0,42,0.00,,,0.00,WeatherCatV1.21B27,2013-09-01 20:42:00,
2013-09-01 13:47:00,93.2,65.2,29.80,NW,306,0.0,1.0,40,0.00,,,0.00,WeatherCatV1.21B27,2013-09-01 20:47:00,
2013-09-01 13:52:00,93.7,68.4,29.80,NW,313,1.0,1.0,44,0.00,,,0.00,WeatherCatV1.21B27,2013-09-01 20:52:00,
2013-09-01 13:57:00,93.8,67.2,29.80,NW,315,1.0,2.0,42,0.00,,,0.00,WeatherCatV1.21B27,2013-09-01 20:57:00,
2013-09-01 14:02:00,93.9,67.3,29.80,WNW,290,0.0,4.0,42,0.00,,,0.00,WeatherCatV1.21B27,2013-09-01 21:02:00,
2013-09-01 14:07:00,93.7,66.4,29.80,West,271,1.0,4.0,41,0.00,,,0.00,WeatherCatV1.21B27,2013-09-01 21:07:00,
2013-09-01 14:12:00,93.6,67.0,29.80,WSW,244,1.0,5.0,42,0.00,,,0.00,WeatherCatV1.21B27,2013-09-01 21:12:00,
2013-09-01 14:17:00,93.5,66.9,29.79,WSW,240,0.0,3.0,42,0.00,,,0.00,WeatherCatV1.21B27,2013-09-01 21:17:00,
2013-09-01 14:22:00,93.9,69.3,29.79,WSW,240,0.0,1.0,45,0.00,,,0.00,WeatherCatV1.21B27,2013-09-01 21:22:00,
2013-09-01 14:27:00,94.3,66.2,29.79,WSW,244,0.0,5.0,40,0.00,,,0.00,WeatherCatV1.21B27,2013-09-01 21:27:00,
2013-09-01 14:32:00,94.2,64.7,29.79,NW,325,0.0,3.0,38,0.00,,,0.00,WeatherCatV1.21B27,2013-09-01 21:32:00,
2013-09-01 14:37:00,94.2,66.1,29.79,WNW,295,0.0,3.0,40,0.00,,,0.00,WeatherCatV1.21B27,2013-09-01 21:37:00,
2013-09-01 14:42:00,94.5,66.4,29.79,NW,322,2.0,5.0,40,0.00,,,0.00,WeatherCatV1.21B27,2013-09-01 21:42:00,
2013-09-01 14:47:00,94.6,66.5,29.78,NW,317,0.0,0.0,40,0.00,,,0.00,WeatherCatV1.21B27,2013-09-01 21:47:00,
2013-09-01 14:52:00,94.8,66.7,29.78,NW,318,2.0,5.0,40,0.00,,,0.00,WeatherCatV1.21B27,2013-09-01 21:52:00,
2013-09-01 14:57:00,94.8,66.7,29.78,NW,319,1.0,1.0,40,0.00,,,0.00,WeatherCatV1.21B27,2013-09-01 21:57:00,
2013-09-01 15:02:00,94.9,68.8,29.78,NW,318,0.0,1.0,43,0.00,,,0.00,WeatherCatV1.21B27,2013-09-01 22:02:00,
2013-09-01 15:07:00,94.8,66.7,29.78,NW,324,0.0,0.0,40,0.00,,,0.00,WeatherCatV1.21B27,2013-09-01 22:07:00,
2013-09-01 15:12:00,94.7,65.8,29.78,NW,324,0.0,4.0,39,0.00,,,0.00,WeatherCatV1.21B27,2013-09-01 22:12:00,
2013-09-01 15:17:00,94.3,65.5,29.78,NW,323,1.0,3.0,39,0.00,,,0.00,WeatherCatV1.21B27,2013-09-01 22:17:00,
2013-09-01 15:22:00,93.9,65.9,29.77,NW,323,0.0,0.0,40,0.00,,,0.00,WeatherCatV1.21B27,2013-09-01 22:22:00,
2013-09-01 15:27:00,94.0,67.4,29.77,NW,324,1.0,1.0,42,0.00,,,0.00,WeatherCatV1.21B27,2013-09-01 22:27:00,
2013-09-01 15:32:00,93.9,67.9,29.77,NNW,331,2.0,4.0,43,0.00,,,0.00,WeatherCatV1.21B27,2013-09-01 22:32:00,
2013-09-01 15:37:00,93.8,65.8,29.77,NNW,341,2.0,4.0,40,0.00,,,0.00,WeatherCatV1.21B27,2013-09-01 22:37:00,
2013-09-01 15:42:00,93.6,66.3,29.77,NNW,344,0.0,1.0,41,0.00,,,0.00,WeatherCatV1.21B27,2013-09-01 22:42:00,
2013-09-01 15:47:00,94.0,65.9,29.77,NNW,346,2.0,3.0,40,0.00,,,0.00,WeatherCatV1.21B27,2013-09-01 22:47:00,
2013-09-01 15:52:00,94.4,68.4,29.77,NNW,346,0.0,0.0,43,0.00,,,0.00,WeatherCatV1.21B27,2013-09-01 22:52:00,
2013-09-01 15:57:00,94.9,68.2,29.76,NNW,346,0.0,0.0,42,0.00,,,0.00,WeatherCatV1.21B27,2013-09-01 22:57:00,
2013-09-01 16:02:00,95.1,64.7,29.76,NNW,327,0.0,5.0,37,0.00,,,0.00,WeatherCatV1.21B27,2013-09-01 23:02:00,
2013-09-01 16:07:00,95.1,65.4,29.76,NW,322,0.0,1.0,38,0.00,,,0.00,WeatherCatV1.21B27,2013-09-01 23:07:00,
2013-09-01 16:12:00,95.2,64.8,29.76,North,349,0.0,4.0,37,0.00,,,0.00,WeatherCatV1.21B27,2013-09-01 23:12:00,
2013-09-01 16:17:00,95.1,65.4,29.76,NNW,345,0.0,2.0,38,0.00,,,0.00,WeatherCatV1.21B27,2013-09-01 23:17:00,
2013-09-01 16:22:00,95.1,64.7,29.76,NNW,348,1.0,3.0,37,0.00,,,0.00,WeatherCatV1.21B27,2013-09-01 23:22:00,
2013-09-01 16:27:00,95.1,65.4,29.75,NNW,342,0.0,1.0,38,0.00,,,0.00,WeatherCatV1.21B27,2013-09-01 23:27:00,
2013-09-01 16:32:00,95.5,64.2,29.75,NNW,342,2.0,3.0,36,0.00,,,0.00,WeatherCatV1.21B27,2013-09-01 23:32:00,
2013-09-01 16:37:00,95.6,65.9,29.75,NNW,342,1.0,1.0,38,0.00,,,0.00,WeatherCatV1.21B27,2013-09-01 23:37:00,
2013-09-01 16:42:00,95.7,64.4,29.75,NNW,336,0.0,1.0,36,0.00,,,0.00,WeatherCatV1.21B27,2013-09-01 23:42:00,
2013-09-01 16:47:00,96.0,67.0,29.75,NNW,336,1.0,1.0,39,0.00,,,0.00,WeatherCatV1.21B27,2013-09-01 23:47:00,
2013-09-01 16:52:00,96.2,63.2,29.75,NNW,335,0.0,1.0,34,0.00,,,0.00,WeatherCatV1.21B27,2013-09-01 23:52:00,
2013-09-01 16:57:00,96.3,64.1,29.75,NNW,335,0.0,2.0,35,0.00,,,0.00,WeatherCatV1.21B27,2013-09-01 23:57:00,
2013-09-01 17:02:00,96.2,63.2,29.75,NNW,335,0.0,2.0,34,0.00,,,0.00,WeatherCatV1.21B27,2013-09-02 00:02:00,
2013-09-01 17:07:00,96.5,62.6,29.75,NNW,334,1.0,1.0,33,0.00,,,0.00,WeatherCatV1.21B27,2013-09-02 00:07:00,
2013-09-01 17:12:00,96.3,64.1,29.75,NNW,334,0.0,3.0,35,0.00,,,0.00,WeatherCatV1.21B27,2013-09-02 00:12:00,
2013-09-01 17:17:00,95.9,63.8,29.75,NNW,336,0.0,3.0,35,0.00,,,0.00,WeatherCatV1.21B27,2013-09-02 00:17:00,
2013-09-01 17:22:00,95.8,63.7,29.75,NNW,336,0.0,0.0,35,0.00,,,0.00,WeatherCatV1.21B27,2013-09-02 00:22:00,
2013-09-01 17:27:00,96.1,64.8,29.74,NNW,336,0.0,1.0,36,0.00,,,0.00,WeatherCatV1.21B27,2013-09-02 00:27:00,
2013-09-01 17:32:00,96.4,64.2,29.74,NNW,339,0.0,2.0,35,0.00,,,0.00,WeatherCatV1.21B27,2013-09-02 00:32:00,
2013-09-01 17:37:00,96.5,64.3,29.74,NNW,339,0.0,0.0,35,0.00,,,0.00,WeatherCatV1.21B27,2013-09-02 00:37:00,
2013-09-01 17:42:00,96.6,65.2,29.74,NNW,338,0.0,0.0,36,0.00,,,0.00,WeatherCatV1.21B27,2013-09-02 00:42:00,
2013-09-01 17:47:00,96.8,64.6,29.74,NNW,339,0.0,1.0,35,0.00,,,0.00,WeatherCatV1.21B27,2013-09-02 00:47:00,
2013-09-01 17:52:00,96.9,64.7,29.74,NNW,339,0.0,0.0,35,0.00,,,0.00,WeatherCatV1.21B27,2013-09-02 00:52:00,
2013-09-01 17:57:00,96.9,64.7,29.74,NNW,339,0.0,0.0,35,0.00,,,0.00,WeatherCatV1.21B27,2013-09-02 00:57:00,
2013-09-01 18:02:00,96.6,66.0,29.74,NNW,338,0.0,0.0,37,0.00,,,0.00,WeatherCatV1.21B27,2013-09-02 01:02:00,
2013-09-01 18:07:00,96.3,64.9,29.75,NNW,339,0.0,0.0,36,0.00,,,0.00,WeatherCatV1.21B27,2013-09-02 01:07:00,
2013-09-01 18:12:00,95.9,64.6,29.75,NNW,339,0.0,0.0,36,0.00,,,0.00,WeatherCatV1.21B27,2013-09-02 01:12:00,
2013-09-01 18:17:00,95.5,65.8,29.75,NNW,338,0.0,0.0,38,0.00,,,0.00,WeatherCatV1.21B27,2013-09-02 01:17:00,
2013-09-01 18:22:00,94.7,66.6,29.75,NNW,338,0.0,0.0,40,0.00,,,0.00,WeatherCatV1.21B27,2013-09-02 01:22:00,
2013-09-01 18:27:00,93.8,67.9,29.75,NNW,338,0.0,0.0,43,0.00,,,0.00,WeatherCatV1.21B27,2013-09-02 01:27:00,
2013-09-01 18:32:00,92.9,70.9,29.75,NNW,339,0.0,0.0,49,0.00,,,0.00,WeatherCatV1.21B27,2013-09-02 01:32:00,
2013-09-01 18:37:00,92.4,71.6,29.75,NNW,338,0.0,0.0,51,0.00,,,0.00,WeatherCatV1.21B27,2013-09-02 01:37:00,
2013-09-01 18:42:00,91.7,71.5,29.75,NNW,339,0.0,0.0,52,0.00,,,0.00,WeatherCatV1.21B27,2013-09-02 01:42:00,
2013-09-01 18:47:00,91.0,69.7,29.75,NNW,339,0.0,0.0,50,0.00,,,0.00,WeatherCatV1.21B27,2013-09-02 01:47:00,
2013-09-01 18:52:00,90.4,68.0,29.75,NNW,339,1.0,1.0,48,0.00,,,0.00,WeatherCatV1.21B27,2013-09-02 01:52:00,
2013-09-01 18:57:00,90.2,67.2,29.75,NNW,338,0.0,0.0,47,0.00,,,0.00,WeatherCatV1.21B27,2013-09-02 01:57:00,
2013-09-01 19:02:00,89.9,66.9,29.75,NNW,339,0.0,0.0,47,0.00,,,0.00,WeatherCatV1.21B27,2013-09-02 02:02:00,
2013-09-01 19:07:00,89.4,66.5,29.75,NNW,339,0.0,0.0,47,0.00,,,0.00,WeatherCatV1.21B27,2013-09-02 02:07:00,
2013-09-01 19:12:00,89.1,67.4,29.75,NNW,339,0.0,0.0,49,0.00,,,0.00,WeatherCatV1.21B27,2013-09-02 02:12:00,
2013-09-01 19:17:00,88.6,67.5,29.75,NNW,338,0.0,0.0,50,0.00,,,0.00,WeatherCatV1.21B27,2013-09-02 02:17:00,
2013-09-01 19:22:00,88.3,67.8,29.75,NNW,339,0.0,0.0,51,0.00,,,0.00,WeatherCatV1.21B27,2013-09-02 02:22:00,
2013-09-01 19:27:00,87.9,67.5,29.75,NNW,339,0.0,0.0,51,0.00,,,0.00,WeatherCatV1.21B27,2013-09-02 02:27:00,
2013-09-01 19:32:00,87.5,67.7,29.75,NNW,339,0.0,0.0,52,0.00,,,0.00,WeatherCatV1.21B27,2013-09-02 02:32:00,
2013-09-01 19:37:00,87.1,67.3,29.75,NNW,339,0.0,0.0,52,0.00,,,0.00,WeatherCatV1.21B27,2013-09-02 02:37:00,
2013-09-01 19:42:00,86.7,66.9,29.75,NNW,339,0.0,0.0,52,0.00,,,0.00,WeatherCatV1.21B27,2013-09-02 02:42:00,
2013-09-01 19:47:00,86.4,67.8,29.75,NNW,339,0.0,0.0,54,0.00,,,0.00,WeatherCatV1.21B27,2013-09-02 02:47:00,
2013-09-01 19:52:00,86.0,67.9,29.75,NNW,338,0.0,0.0,55,0.00,,,0.00,WeatherCatV1.21B27,2013-09-02 02:52:00,
2013-09-01 19:57:00,85.5,67.4,29.76,NNW,339,0.0,0.0,55,0.00,,,0.00,WeatherCatV1.21B27,2013-09-02 02:57:00,
2013-09-01 20:02:00,85.1,67.6,29.76,NNW,338,0.0,0.0,56,0.00,,,0.00,WeatherCatV1.21B27,2013-09-02 03:02:00,
2013-09-01 20:07:00,84.8,67.3,29.76,NNW,339,0.0,0.0,56,0.00,,,0.00,WeatherCatV1.21B27,2013-09-02 03:07:00,
2013-09-01 20:12:00,84.5,67.6,29.76,NNW,338,0.0,0.0,57,0.00,,,0.00,WeatherCatV1.21B27,2013-09-02 03:12:00,
2013-09-01 20:17:00,84.1,67.2,29.76,NNW,339,0.0,0.0,57,0.00,,,0.00,WeatherCatV1.21B27,2013-09-02 03:17:00,
2013-09-01 20:22:00,83.9,66.5,29.76,NNW,338,0.0,0.0,56,0.00,,,0.00,WeatherCatV1.21B27,2013-09-02 03:22:00,
2013-09-01 20:27:00,83.7,66.8,29.76,NNW,338,0.0,0.0,57,0.00,,,0.00,WeatherCatV1.21B27,2013-09-02 03:27:00,
2013-09-01 20:32:00,83.5,66.6,29.77,NNW,339,0.0,0.0,57,0.00,,,0.00,WeatherCatV1.21B27,2013-09-02 03:32:00,
2013-09-01 20:37:00,83.4,66.5,29.77,NNW,338,0.0,0.0,57,0.00,,,0.00,WeatherCatV1.21B27,2013-09-02 03:37:00,
2013-09-01 20:42:00,83.2,66.9,29.77,NNW,339,0.0,0.0,58,0.00,,,0.00,WeatherCatV1.21B27,2013-09-02 03:42:00,
2013-09-01 20:47:00,83.0,66.7,29.77,NNW,338,0.0,0.0,58,0.00,,,0.00,WeatherCatV1.21B27,2013-09-02 03:47:00,
2013-09-01 20:52:00,82.9,67.1,29.77,NNW,339,0.0,0.0,59,0.00,,,0.00,WeatherCatV1.21B27,2013-09-02 03:52:00,
2013-09-01 20:57:00,82.6,66.8,29.77,NNW,338,0.0,0.0,59,0.00,,,0.00,WeatherCatV1.21B27,2013-09-02 03:57:00,
2013-09-01 21:01:00,82.5,66.7,29.77,NNW,339,0.0,0.0,59,0.00,,,0.00,WeatherCatV1.21B27,2013-09-02 04:01:00,
2013-09-01 21:06:00,82.3,67.0,29.77,NNW,339,0.0,0.0,60,0.00,,,0.00,WeatherCatV1.21B27,2013-09-02 04:06:00,
2013-09-01 21:11:00,82.0,66.7,29.78,NNW,338,0.0,0.0,60,0.00,,,0.00,WeatherCatV1.21B27,2013-09-02 04:11:00,
2013-09-01 21:16:00,81.6,66.3,29.78,NNW,338,0.0,0.0,60,0.00,,,0.00,WeatherCatV1.21B27,2013-09-02 04:16:00,
2013-09-01 21:21:00,81.4,66.2,29.78,NNW,339,0.0,0.0,60,0.00,,,0.00,WeatherCatV1.21B27,2013-09-02 04:21:00,
2013-09-01 21:26:00,81.1,66.3,29.78,NNW,339,0.0,0.0,61,0.00,,,0.00,WeatherCatV1.21B27,2013-09-02 04:26:00,
2013-09-01 21:31:00,80.9,66.2,29.78,NNW,339,0.0,0.0,61,0.00,,,0.00,WeatherCatV1.21B27,2013-09-02 04:31:00,
2013-09-01 21:36:00,80.7,66.0,29.78,NNW,339,0.0,0.0,61,0.00,,,0.00,WeatherCatV1.21B27,2013-09-02 04:36:00,
2013-09-01 21:41:00,80.5,66.3,29.78,NNW,339,0.0,0.0,62,0.00,,,0.00,WeatherCatV1.21B27,2013-09-02 04:41:00,
2013-09-01 21:46:00,80.2,66.4,29.78,NNW,338,0.0,0.0,63,0.00,,,0.00,WeatherCatV1.21B27,2013-09-02 04:46:00,
2013-09-01 21:51:00,80.0,66.7,29.78,NNW,339,0.0,0.0,64,0.00,,,0.00,WeatherCatV1.21B27,2013-09-02 04:51:00,
2013-09-01 21:56:00,79.9,66.6,29.78,NNW,339,0.0,0.0,64,0.00,,,0.00,WeatherCatV1.21B27,2013-09-02 04:56:00,
2013-09-01 22:01:00,79.6,66.3,29.79,NNW,339,0.0,1.0,64,0.00,,,0.00,WeatherCatV1.21B27,2013-09-02 05:01:00,
2013-09-01 22:06:00,79.4,66.6,29.79,NNW,339,0.0,0.0,65,0.00,,,0.00,WeatherCatV1.21B27,2013-09-02 05:06:00,
2013-09-01 22:11:00,79.3,66.5,29.79,NNW,339,0.0,0.0,65,0.00,,,0.00,WeatherCatV1.21B27,2013-09-02 05:11:00,
2013-09-01 22:16:00,79.2,66.4,29.79,NNW,339,0.0,1.0,65,0.00,,,0.00,WeatherCatV1.21B27,2013-09-02 05:16:00,
2013-09-01 22:21:00,79.1,66.7,29.79,NNW,338,0.0,0.0,66,0.00,,,0.00,WeatherCatV1.21B27,2013-09-02 05:21:00,
2013-09-01 22:26:00,78.9,66.6,29.80,NNW,339,0.0,0.0,66,0.00,,,0.00,WeatherCatV1.21B27,2013-09-02 05:26:00,
2013-09-01 22:31:00,78.7,66.4,29.80,NNW,334,3.0,3.0,66,0.00,,,0.00,WeatherCatV1.21B27,2013-09-02 05:31:00,
2013-09-01 22:36:00,78.5,66.6,29.80,NNW,331,0.0,2.0,67,0.00,,,0.00,WeatherCatV1.21B27,2013-09-02 05:36:00,
2013-09-01 22:41:00,78.4,66.5,29.80,NNW,330,0.0,0.0,67,0.00,,,0.00,WeatherCatV1.21B27,2013-09-02 05:41:00,
2013-09-01 22:46:00,78.3,66.4,29.80,NNW,331,0.0,0.0,67,0.00,,,0.00,WeatherCatV1.21B27,2013-09-02 05:46:00,
2013-09-01 22:51:00,78.1,66.2,29.80,NNW,330,0.0,0.0,67,0.00,,,0.00,WeatherCatV1.21B27,2013-09-02 05:51:00,
2013-09-01 22:56:00,77.8,66.4,29.80,NNW,330,0.0,0.0,68,0.00,,,0.00,WeatherCatV1.21B27,2013-09-02 05:56:00,
2013-09-01 23:01:00,77.6,66.6,29.80,NNW,330,0.0,1.0,69,0.00,,,0.00,WeatherCatV1.21B27,2013-09-02 06:01:00,
2013-09-01 23:06:00,77.4,66.4,29.80,NNW,330,0.0,0.0,69,0.00,,,0.00,WeatherCatV1.21B27,2013-09-02 06:06:00,
2013-09-01 23:11:00,77.2,66.2,29.80,NNW,330,0.0,0.0,69,0.00,,,0.00,WeatherCatV1.21B27,2013-09-02 06:11:00,
2013-09-01 23:16:00,77.0,66.0,29.80,NNW,331,0.0,0.0,69,0.00,,,0.00,WeatherCatV1.21B27,2013-09-02 06:16:00,
2013-09-01 23:21:00,76.9,65.9,29.80,NNW,331,0.0,0.0,69,0.00,,,0.00,WeatherCatV1.21B27,2013-09-02 06:21:00,
2013-09-01 23:26:00,76.8,65.8,29.80,NNW,330,0.0,0.0,69,0.00,,,0.00,WeatherCatV1.21B27,2013-09-02 06:26:00,
2013-09-01 23:31:00,76.7,66.2,29.80,NNW,330,0.0,0.0,70,0.00,,,0.00,WeatherCatV1.21B27,2013-09-02 06:31:00,
2013-09-01 23:36:00,76.5,66.0,29.80,NNW,330,0.0,0.0,70,0.00,,,0.00,WeatherCatV1.21B27,2013-09-02 06:36:00,
2013-09-01 23:41:00,76.4,65.9,29.80,NNW,330,0.0,0.0,70,0.00,,,0.00,WeatherCatV1.21B27,2013-09-02 06:41:00,
2013-09-01 23:46:00,76.2,65.7,29.80,NNW,330,0.0,1.0,70,0.00,,,0.00,WeatherCatV1.21B27,2013-09-02 06:46:00,
2013-09-01 23:51:00,76.1,65.6,29.80,NNW,330,0.0,0.0,70,0.00,,,0.00,WeatherCatV1.21B27,2013-09-02 06:51:00,
2013-09-01 23:56:00,76.0,65.5,29.80,NNW,330,0.0,1.0,70,0.00,,,0.00,WeatherCatV1.21B27,2013-09-02 06:56:00,